Weather History for Port Lavaca, TX

Change the Weather History Date:

Sunday, July 28, 2013

  Actual Average (KVCT) Record (KVCT)
Temperature  
Mean Temperature 84 °F 84 °F  
Max Temperature 91 °F 95 °F 103 °F (1912)
Min Temperature 77 °F 74 °F 70 °F (1994)
Degree Days  
Heating Degree Days 0 0  
Month to date heating degree days 0  
Since 1 June heating degree days 0  
Since 1 July heating degree days 0  
Cooling Degree Days 18 19  
Month to date cooling degree days 527  
Year to date cooling degree days 1694  
Since 1 June cooling degree days 1035  
Growing Degree Days 34 (Base 50)    
Moisture  
Dew Point 74 °F    
Average Humidity 75    
Maximum Humidity 92    
Minimum Humidity 50    
Precipitation  
Precipitation 0.00 in 0.12 in 1.37 in (1988)
Month to date precipitation 3.86  
Year to date precipitation 23.70  
Snow  
Snow 0.00 in - - ()
Month to date snowfall  
Since 1 June snowfall  
Since 1 July snowfall  
Snow Depth -    
Sea Level Pressure  
Sea Level Pressure 29.92 in    
Wind  
Wind Speed 7 mph (South)    
Max Wind Speed 18 mph    
Max Gust Speed 24 mph    
Visibility 8 miles    
Events      
T = Trace of Precipitation, MM = Missing Value Source: NWS Daily Summary

Daily Weather History Graph

Daily Weather History Graph

Search for Another Location

Airport:

Trip Planner

Search our weather history database for the weather conditions in past years. The results will help you decide how hot, cold, wet, or windy it might be!

Date:

Astronomy

Jul. 28, 2013 Rise Set
Actual Time 6:46 AM CDT 8:20 PM CDT
Civil Twilight 6:20 AM CDT 8:45 PM CDT
Nautical Twilight 5:49 AM CDT 9:16 PM CDT
Astronomical Twilight 5:17 AM CDT 9:48 PM CDT
Moon No Moon Rise 12:51 PM CDT (7/28)
Length of Visible Light 14h 25m
Length of Day
13h 33m
Waning Gibbous, 60% of the Moon is Illuminated
Jul 28
Waning Gibbous
Jul 29
Last Quarter
Aug 6
New
Aug 14
First Quarter
Aug 20
Full

Hourly Weather History & Observations

Time (CDT) Temp. Heat Index Dew Point Humidity Pressure Visibility Wind Dir Wind Speed Gust Speed Precip Events Conditions
12:15 AM 78.4 °F - 75.4 °F 90% 29.90 in 7.0 mi South 4.6 mph - N/A   Scattered Clouds
12:35 AM 79.0 °F - 75.7 °F 90% 29.90 in 7.0 mi South 3.5 mph - N/A   Mostly Cloudy
12:55 AM 79.2 °F - 75.7 °F 89% 29.91 in 7.0 mi South 3.5 mph - N/A   Mostly Cloudy
1:15 AM 78.8 °F - 75.6 °F 90% 29.91 in 7.0 mi Calm Calm - N/A   Scattered Clouds
1:35 AM 78.3 °F - 75.4 °F 91% 29.91 in 7.0 mi Calm Calm - N/A   Mostly Cloudy
1:55 AM 78.3 °F - 75.6 °F 91% 29.91 in 7.0 mi South 3.5 mph - N/A   Mostly Cloudy
2:15 AM 78.3 °F - 75.6 °F 91% 29.90 in 7.0 mi South 3.5 mph - N/A   Scattered Clouds
2:35 AM 78.3 °F - 75.6 °F 91% 29.90 in 7.0 mi South 3.5 mph - N/A   Mostly Cloudy
2:55 AM 78.3 °F - 75.7 °F 92% 29.90 in 7.0 mi South 4.6 mph - N/A   Scattered Clouds
3:15 AM 78.8 °F - 76.1 °F 91% 29.90 in 7.0 mi SSW 4.6 mph - N/A   Mostly Cloudy
3:35 AM 79.5 °F - 76.5 °F 90% 29.90 in 7.0 mi South 6.9 mph - N/A   Overcast
3:55 AM 79.7 °F - 76.3 °F 89% 29.89 in 7.0 mi South 5.8 mph - N/A   Overcast
4:15 AM 79.7 °F - 76.1 °F 89% 29.90 in 7.0 mi South 4.6 mph - N/A   Scattered Clouds
4:35 AM 79.2 °F - 75.9 °F 90% 29.89 in 7.0 mi South 5.8 mph - N/A   Scattered Clouds
4:55 AM 79.3 °F - 75.7 °F 89% 29.90 in 7.0 mi South 4.6 mph - N/A   Scattered Clouds
5:15 AM 79.2 °F - 75.6 °F 89% 29.90 in 7.0 mi South 4.6 mph - N/A   Scattered Clouds
5:35 AM 78.6 °F - 75.2 °F 89% 29.89 in 7.0 mi South 3.5 mph - N/A   Scattered Clouds
5:55 AM 78.4 °F - 75.4 °F 90% 29.90 in 7.0 mi Calm Calm - N/A   Scattered Clouds
6:15 AM 78.4 °F - 75.2 °F 90% 29.91 in 7.0 mi Calm Calm - N/A   Clear
6:35 AM 78.3 °F - 75.2 °F 90% 29.91 in 7.0 mi Calm Calm - N/A   Clear
6:55 AM 77.5 °F - 74.8 °F 91% 29.92 in 5.0 mi South 4.6 mph - N/A   Clear
7:15 AM 78.1 °F - 75.4 °F 91% 29.92 in 5.0 mi South 3.5 mph - N/A   Clear
7:35 AM 78.6 °F - 75.7 °F 91% 29.93 in 5.0 mi South 3.5 mph - N/A   Clear
7:55 AM 79.7 °F - 76.1 °F 89% 29.93 in 7.0 mi South 4.6 mph - N/A   Clear
8:15 AM 81.5 °F 89.0 °F 76.8 °F 86% 29.94 in 7.0 mi South 5.8 mph - N/A   Clear
8:35 AM 83.1 °F 91.6 °F 76.5 °F 80% 29.94 in 7.0 mi SSW 9.2 mph - N/A   Scattered Clouds
8:55 AM 83.3 °F 91.4 °F 75.7 °F 78% 29.94 in 7.0 mi SSW 12.7 mph - N/A   Scattered Clouds
9:15 AM 84.4 °F 92.7 °F 75.2 °F 74% 29.94 in 7.0 mi South 10.4 mph 16.1 mph N/A   Scattered Clouds
9:35 AM 84.2 °F 91.6 °F 74.5 °F 72% 29.94 in 10.0 mi SSW 11.5 mph - N/A   Clear
9:55 AM 86.9 °F 95.9 °F 74.7 °F 67% 29.94 in 7.0 mi South 12.7 mph - N/A   Scattered Clouds
10:15 AM 86.9 °F 94.5 °F 73.6 °F 64% 29.94 in 10.0 mi SSW 12.7 mph 17.3 mph N/A   Scattered Clouds
10:35 AM 86.9 °F 93.7 °F 72.5 °F 62% 29.94 in 7.0 mi South 13.8 mph 18.4 mph N/A   Scattered Clouds
10:55 AM 87.3 °F 93.6 °F 72.0 °F 60% 29.95 in 10.0 mi South 13.8 mph 23.0 mph N/A   Scattered Clouds
11:15 AM 88.3 °F 95.0 °F 71.8 °F 58% 29.95 in 10.0 mi South 15.0 mph 21.9 mph N/A   Scattered Clouds
11:35 AM 89.1 °F 96.0 °F 71.8 °F 57% 29.95 in 10.0 mi South 15.0 mph 21.9 mph N/A   Scattered Clouds
11:55 AM 88.7 °F 96.2 °F 72.7 °F 59% 29.95 in 7.0 mi South 15.0 mph 18.4 mph N/A   Scattered Clouds
12:15 PM 89.4 °F 96.3 °F 71.6 °F 56% 29.95 in 7.0 mi South 16.1 mph 20.7 mph N/A   Scattered Clouds
12:35 PM 89.8 °F 96.0 °F 71.2 °F 54% 29.95 in 10.0 mi South 16.1 mph 23.0 mph N/A   Scattered Clouds
12:55 PM 90.3 °F 96.7 °F 71.2 °F 53% 29.95 in 7.0 mi South 11.5 mph 16.1 mph N/A   Scattered Clouds
1:15 PM 90.7 °F 95.9 °F 70.0 °F 50% 29.95 in 7.0 mi South 12.7 mph 18.4 mph N/A   Scattered Clouds
1:35 PM 90.1 °F 96.3 °F 71.1 °F 53% 29.95 in 7.0 mi South 12.7 mph - N/A   Scattered Clouds
1:55 PM 90.3 °F 97.2 °F 71.4 °F 54% 29.94 in 10.0 mi SSE 13.8 mph 18.4 mph N/A   Scattered Clouds
2:15 PM 90.3 °F 96.7 °F 71.2 °F 53% 29.93 in 10.0 mi South 10.4 mph 19.6 mph N/A   Scattered Clouds
2:35 PM 90.5 °F 98.1 °F 72.1 °F 55% 29.93 in 10.0 mi South 13.8 mph 23.0 mph N/A   Scattered Clouds
2:55 PM 90.3 °F 97.2 °F 71.6 °F 54% 29.93 in 7.0 mi SSE 16.1 mph 23.0 mph N/A   Scattered Clouds
3:15 PM 90.5 °F 97.5 °F 71.6 °F 54% 29.92 in 10.0 mi South 15.0 mph 21.9 mph N/A   Scattered Clouds
3:35 PM 90.1 °F 97.3 °F 72.0 °F 55% 29.91 in 10.0 mi South 13.8 mph 24.2 mph N/A   Mostly Cloudy
3:55 PM 89.6 °F 97.2 °F 72.3 °F 57% 29.90 in 10.0 mi SSE 18.4 mph 23.0 mph N/A   Mostly Cloudy
4:15 PM 88.7 °F 95.7 °F 72.1 °F 58% 29.90 in 10.0 mi South 16.1 mph 23.0 mph N/A   Scattered Clouds
4:35 PM 88.3 °F 95.4 °F 72.3 °F 59% 29.90 in 10.0 mi South 12.7 mph 20.7 mph N/A   Scattered Clouds
4:55 PM 88.0 °F 95.1 °F 72.5 °F 60% 29.90 in 10.0 mi South 15.0 mph 20.7 mph N/A   Mostly Cloudy
5:15 PM 88.0 °F 95.6 °F 73.2 °F 61% 29.89 in 7.0 mi South 13.8 mph 18.4 mph N/A   Mostly Cloudy
5:35 PM 87.6 °F 95.7 °F 73.4 °F 63% 29.89 in 7.0 mi SSE 11.5 mph 17.3 mph N/A   Mostly Cloudy
5:55 PM 87.6 °F 95.7 °F 73.8 °F 63% 29.90 in 7.0 mi SSE 12.7 mph 18.4 mph N/A   Mostly Cloudy
6:15 PM 87.1 °F 95.4 °F 73.9 °F 65% 29.90 in 10.0 mi SSE 13.8 mph - N/A   Mostly Cloudy
6:35 PM 87.1 °F 95.4 °F 73.9 °F 65% 29.89 in 10.0 mi South 12.7 mph - N/A   Mostly Cloudy
6:55 PM 86.0 °F 93.8 °F 73.8 °F 67% 29.89 in 10.0 mi South 11.5 mph 20.7 mph N/A   Mostly Cloudy
7:15 PM 85.1 °F 92.6 °F 73.8 °F 69% 29.90 in 10.0 mi SSE 12.7 mph - N/A   Mostly Cloudy
7:35 PM 84.7 °F 92.5 °F 74.5 °F 71% 29.91 in 10.0 mi SSE 13.8 mph - N/A   Mostly Cloudy
7:55 PM 83.7 °F 91.0 °F 74.5 °F 74% 29.91 in 7.0 mi SSE 11.5 mph - N/A   Mostly Cloudy
8:15 PM 83.3 °F 90.8 °F 75.2 °F 76% 29.91 in 7.0 mi SSE 11.5 mph 16.1 mph N/A   Mostly Cloudy
8:35 PM 82.8 °F 90.1 °F 75.2 °F 78% 29.92 in 10.0 mi SSE 11.5 mph - N/A   Mostly Cloudy
8:55 PM 82.6 °F 89.7 °F 75.2 °F 78% 29.92 in 10.0 mi SSE 9.2 mph - N/A   Mostly Cloudy
9:15 PM 82.0 °F 88.9 °F 75.4 °F 80% 29.92 in 10.0 mi SSE 10.4 mph - N/A   Overcast
9:35 PM 82.0 °F 88.9 °F 75.4 °F 80% 29.93 in 10.0 mi SSE 9.2 mph - N/A   Mostly Cloudy
9:55 PM 81.7 °F 88.5 °F 75.6 °F 82% 29.93 in 10.0 mi SSE 9.2 mph - N/A   Mostly Cloudy
10:15 PM 81.5 °F 88.0 °F 75.6 °F 82% 29.94 in 10.0 mi SSE 8.1 mph - N/A   Mostly Cloudy
10:35 PM 81.5 °F 88.3 °F 75.9 °F 83% 29.94 in 10.0 mi SSE 9.2 mph - N/A   Mostly Cloudy
10:55 PM 81.1 °F 87.6 °F 75.7 °F 84% 29.95 in 7.0 mi SSE 10.4 mph - N/A   Mostly Cloudy
11:15 PM 80.8 °F 86.9 °F 75.7 °F 85% 29.95 in 10.0 mi SSE 10.4 mph - N/A   Scattered Clouds
11:35 PM 80.6 °F 86.4 °F 75.7 °F 85% 29.95 in 10.0 mi SSE 10.4 mph - N/A   Clear
11:55 PM 80.6 °F 86.4 °F 75.7 °F 85% 29.95 in 10.0 mi SSE 9.2 mph - N/A   Scattered Clouds